This is the latest recevied weather packets stored in our database for station/object K7TUS-6. If no packets are shown the sender has not sent any weather packets the latest 10 day(s).
| Time | Temp. | Humidity | Pressure | Rain* | Wind** | Luminosity | Snow |
|---|---|---|---|---|---|---|---|
| 1777620909 | 6.11° C | 19% | 978 hPa | - | - | - | - |
| 1777620608 | 6.67° C | 19% | 978.5 hPa | - | - | - | - |
| 1777620307 | 6.67° C | 19% | 978.1 hPa | - | - | - | - |
| 1777620007 | 6.67° C | 19% | 978.1 hPa | - | - | - | - |
| 1777619707 | 6.67° C | 19% | 978.6 hPa | - | - | - | - |
| 1777619406 | 7.22° C | 19% | 979.3 hPa | - | - | - | - |
| 1777619105 | 7.22° C | 18% | 978.9 hPa | - | - | - | - |
| 1777618808 | 7.22° C | 18% | 979.2 hPa | - | - | - | - |
| 1777618209 | 7.78° C | 22% | 978.4 hPa | - | - | - | - |
| 1777617909 | 7.22° C | 23% | 978.6 hPa | - | - | - | - |
| 1777617308 | 6.67° C | 23% | 979.6 hPa | - | - | - | - |
| 1777617008 | 6.67° C | 21% | 979.1 hPa | - | - | - | - |
| 1777616707 | 7.22° C | 20% | 978.8 hPa | - | - | - | - |
| 1777616407 | 7.22° C | 18% | 978.9 hPa | - | - | - | - |
| 1777615806 | 7.78° C | 14% | 978.6 hPa | - | - | - | - |
| 1777615506 | 8.33° C | 18% | 979.1 hPa | - | - | - | - |
| 1777615205 | 7.22° C | 18% | 978.3 hPa | - | - | - | - |
| 1777614905 | 7.78° C | 32% | 978.5 hPa | - | - | - | - |
| 1777614604 | 8.33° C | 33% | 978 hPa | - | - | - | - |
| 1777614304 | 8.33° C | 20% | 978.7 hPa | - | - | - | - |
| 1777614009 | 7.78° C | 18% | 978.7 hPa | - | - | - | - |
| 1777613409 | 6.67° C | 23% | 978.9 hPa | - | - | - | - |
| 1777612808 | 6.11° C | 48% | 978.3 hPa | - | - | - | - |
| 1777612508 | 6.11° C | 48% | 978.8 hPa | - | - | - | - |
| 1777612207 | 5.56° C | 47% | 977.6 hPa | - | - | - | - |
* Rain since midnight (hover to see other rain measurements)
** Current wind speed in m/s (hover to see current wind gust speed)